• In Netherlands
  • List of Countries
  • For 7 days
  • Water Temperature
  • Satellite Maps
  • Weather Map
  • Weather Widgets
  • user-avatar
    Login

    Hourly Weather Tarin Kowt

    Today, 21 January, Saturday

    Time Temperature Precipitation Wind Pressure Humidity
    00:00 +3°C° 0 mm 2 mps 618 mmHg 35%
    01:00 +3°C° 0 mm 2 mps 618 mmHg 35%
    02:00 +3°C° 0 mm 2 mps 618 mmHg 35%
    03:00 +3°C° 0 mm 2 mps 618 mmHg 35%
    04:00 +3°C° 0 mm 2 mps 617 mmHg 35%
    05:00 +3°C° 0 mm 2 mps 617 mmHg 35%
    06:00 +3°C° 0 mm 2 mps 618 mmHg 36%
    07:00 +3°C° 0 mm 2 mps 618 mmHg 36%
    08:00 +4°C° 0 mm 2 mps 618 mmHg 33%
    09:00 +5°C° 0 mm 2 mps 619 mmHg 31%
    10:00 +6°C° 0 mm 2 mps 619 mmHg 28%
    11:00 +7°C° 0 mm 2 mps 619 mmHg 29%
    12:00 +7°C° 0 mm 2 mps 619 mmHg 29%
    13:00 +8°C° 0 mm 2 mps 619 mmHg 29%
    14:00 +8°C° 0 mm 2 mps 619 mmHg 30%
    15:00 +8°C° 0 mm 2 mps 618 mmHg 32%
    16:00 +8°C° 0 mm 2 mps 618 mmHg 32%
    17:00 +7°C° 0 mm 2 mps 618 mmHg 34%
    18:00 +7°C° 0 mm 2 mps 618 mmHg 36%
    19:00 +6°C° 0 mm 2 mps 618 mmHg 38%
    20:00 +6°C° 0 mm 2 mps 619 mmHg 40%
    21:00 +5°C° 0 mm 2 mps 619 mmHg 41%
    22:00 +5°C° 0 mm 2 mps 619 mmHg 43%
    23:00 +5°C° 0.1 mm 2 mps 619 mmHg 45%

    Tomorrow, 22 January, Sunday

    Time Temperature Precipitation Wind Pressure Humidity
    00:00 +4°C° 0.1 mm 3 mps 619 mmHg 48%
    01:00 +3°C° 0.1 mm 3 mps 619 mmHg 51%
    02:00 +3°C° 0 mm 3 mps 619 mmHg 53%
    03:00 +3°C° 0 mm 3 mps 619 mmHg 56%
    04:00 +3°C° 0 mm 3 mps 618 mmHg 58%
    05:00 +3°C° 0.1 mm 3 mps 618 mmHg 61%
    06:00 +3°C° 0.1 mm 2 mps 618 mmHg 64%
    07:00 +3°C° 0.1 mm 2 mps 618 mmHg 66%
    08:00 +4°C° 0.1 mm 2 mps 619 mmHg 63%
    09:00 +4°C° 0.1 mm 3 mps 619 mmHg 60%
    10:00 +5°C° 0.1 mm 3 mps 619 mmHg 57%
    11:00 +5°C° 0.1 mm 3 mps 619 mmHg 57%
    12:00 +6°C° 0.1 mm 2 mps 618 mmHg 56%
    13:00 +7°C° 0.1 mm 2 mps 618 mmHg 56%
    14:00 +7°C° 0 mm 2 mps 618 mmHg 57%
    15:00 +7°C° 0 mm 2 mps 618 mmHg 57%
    16:00 +7°C° 0 mm 2 mps 618 mmHg 58%
    17:00 +6°C° 0 mm 2 mps 618 mmHg 61%
    18:00 +6°C° 0 mm 2 mps 618 mmHg 64%
    19:00 +5°C° 0 mm 2 mps 618 mmHg 66%
    20:00 +5°C° 0.1 mm 2 mps 618 mmHg 67%
    21:00 +5°C° 0.1 mm 2 mps 618 mmHg 68%
    22:00 +5°C° 0.1 mm 2 mps 618 mmHg 68%
    23:00 +5°C° 0.4 mm 2 mps 617 mmHg 70%

    Day after tomorrow, 23 January, Monday

    Time Temperature Precipitation Wind Pressure Humidity
    00:00 +4°C° 0.4 mm 2 mps 617 mmHg 72%
    01:00 +4°C° 0.4 mm 2 mps 617 mmHg 74%
    02:00 +4°C° 1 mm 2 mps 616 mmHg 76%
    03:00 +4°C° 1 mm 2 mps 616 mmHg 78%
    04:00 +4°C° 1 mm 2 mps 615 mmHg 80%
    05:00 +4°C° 0.6 mm 2 mps 615 mmHg 80%
    06:00 +4°C° 0.6 mm 2 mps 615 mmHg 80%
    07:00 +3°C° 0.6 mm 3 mps 615 mmHg 80%
    08:00 +3°C° 0.8 mm 3 mps 615 mmHg 79%
    09:00 +3°C° 0.8 mm 3 mps 615 mmHg 79%
    10:00 +3°C° 0.8 mm 3 mps 615 mmHg 78%
    11:00 +4°C° 0.7 mm 3 mps 615 mmHg 77%
    12:00 +4°C° 0.7 mm 3 mps 614 mmHg 77%
    13:00 +5°C° 0.7 mm 3 mps 614 mmHg 76%
    14:00 +5°C° 0.6 mm 3 mps 614 mmHg 76%
    15:00 +5°C° 0.6 mm 3 mps 614 mmHg 75%
    16:00 +7°C° 0.6 mm 3 mps 614 mmHg 75%
    17:00 +6°C° 0.6 mm 2 mps 614 mmHg 78%
    18:00 +5°C° 0.6 mm 2 mps 614 mmHg 80%
    19:00 +5°C° 0.6 mm 2 mps 614 mmHg 83%
    20:00 +5°C° 0.4 mm 2 mps 615 mmHg 84%
    21:00 +4°C° 0.4 mm 2 mps 615 mmHg 85%
    22:00 +5°C° 0.4 mm 1 mps 615 mmHg 86%
    23:00 +5°C° 0.1 mm 1 mps 615 mmHg 87%

    24 January, Tuesday

    Time Temperature Precipitation Wind Pressure Humidity
    00:00 +4°C° 0.1 mm 1 mps 614 mmHg 88%
    01:00 +4°C° 0.1 mm 1 mps 614 mmHg 89%
    02:00 +4°C° 0 mm 1 mps 614 mmHg 90%
    03:00 +3°C° 0 mm 1 mps 614 mmHg 91%
    04:00 +3°C° 0 mm 1 mps 614 mmHg 92%
    05:00 +3°C° 0 mm 1 mps 615 mmHg 92%
    06:00 +3°C° 0 mm 1 mps 615 mmHg 92%
    07:00 +3°C° 0 mm 1 mps 616 mmHg 92%
    08:00 +4°C° 0 mm 1 mps 616 mmHg 85%
    09:00 +5°C° 0 mm 1 mps 617 mmHg 78%
    10:00 +5°C° 0 mm 1 mps 618 mmHg 71%
    11:00 +5°C° 0 mm 2 mps 617 mmHg 66%
    12:00 +5°C° 0 mm 2 mps 617 mmHg 61%
    13:00 +6°C° 0 mm 2 mps 617 mmHg 56%
    14:00 +6°C° 0 mm 2 mps 617 mmHg 55%
    15:00 +5°C° 0 mm 3 mps 616 mmHg 54%
    16:00 +4°C° 0 mm 3 mps 616 mmHg 54%
    17:00 +5°C° 0 mm 2 mps 616 mmHg 56%
    18:00 +5°C° 0 mm 1 mps 617 mmHg 59%
    19:00 +5°C° 0 mm 1 mps 617 mmHg 62%
    20:00 +4°C° 0 mm 1 mps 617 mmHg 64%
    21:00 +4°C° 0 mm 1 mps 617 mmHg 66%
    22:00 +2°C° 0 mm 0 mps 617 mmHg 68%
    23:00 +2°C° 0 mm 0 mps 617 mmHg 68%

    25 January, Wednesday

    Time Temperature Precipitation Wind Pressure Humidity
    00:00 +2°C° 0 mm 0 mps 616 mmHg 69%
    01:00 +1°C° 0 mm 0 mps 616 mmHg 70%
    02:00 +1°C° 0 mm 0 mps 616 mmHg 71%
    03:00 +1°C° 0 mm 0 mps 616 mmHg 71%
    04:00 +1°C° 0 mm 0 mps 615 mmHg 72%
    05:00 +1°C° 0 mm 0 mps 616 mmHg 73%
    06:00 0°C° 0 mm 0 mps 616 mmHg 74%
    07:00 +1°C° 0 mm 1 mps 616 mmHg 74%
    08:00 +2°C° 0 mm 1 mps 617 mmHg 70%
    09:00 +3°C° 0 mm 1 mps 617 mmHg 65%
    10:00 +4°C° 0 mm 1 mps 617 mmHg 60%
    11:00 +4°C° 0 mm 1 mps 617 mmHg 59%
    12:00 +4°C° 0 mm 1 mps 616 mmHg 57%
    13:00 +5°C° 0 mm 1 mps 616 mmHg 55%
    14:00 +5°C° 0 mm 1 mps 616 mmHg 55%
    15:00 +5°C° 0 mm 1 mps 616 mmHg 55%
    16:00 +4°C° 0 mm 2 mps 615 mmHg 55%
    17:00 +3°C° 0 mm 2 mps 616 mmHg 57%
    18:00 +3°C° 0 mm 2 mps 616 mmHg 58%
    19:00 +3°C° 0 mm 2 mps 616 mmHg 60%
    20:00 +2°C° 0 mm 2 mps 616 mmHg 61%
    21:00 +3°C° 0 mm 1 mps 616 mmHg 63%
    22:00 +2°C° 0 mm 1 mps 616 mmHg 64%
    23:00 +2°C° 0 mm 1 mps 616 mmHg 66%

    26 January, Thursday

    Time Temperature Precipitation Wind Pressure Humidity
    00:00 +2°C° 0 mm 1 mps 616 mmHg 67%
    01:00 +1°C° 0 mm 1 mps 616 mmHg 69%
    02:00 +1°C° 0 mm 1 mps 616 mmHg 70%
    03:00 +1°C° 0 mm 1 mps 616 mmHg 71%
    04:00 -1°C° 0 mm 0 mps 616 mmHg 72%
    05:00 -1°C° 0 mm 0 mps 616 mmHg 73%
    06:00 -1°C° 0 mm 0 mps 617 mmHg 73%
    07:00 -1°C° 0 mm 0 mps 617 mmHg 74%
    08:00 0°C° 0 mm 0 mps 618 mmHg 69%
    09:00 0°C° 0 mm 0 mps 618 mmHg 63%
    10:00 +2°C° 0 mm 1 mps 619 mmHg 58%
    11:00 +3°C° 0 mm 1 mps 618 mmHg 54%
    12:00 +4°C° 0 mm 1 mps 618 mmHg 51%
    13:00 +3°C° 0 mm 2 mps 618 mmHg 47%
    14:00 +3°C° 0 mm 2 mps 618 mmHg 45%
    15:00 +3°C° 0 mm 2 mps 617 mmHg 44%
    16:00 +4°C° 0 mm 2 mps 617 mmHg 42%
    17:00 +3°C° 0 mm 2 mps 618 mmHg 46%
    18:00 +2°C° 0 mm 2 mps 618 mmHg 49%
    19:00 +3°C° 0 mm 1 mps 618 mmHg 52%
    20:00 +2°C° 0 mm 1 mps 618 mmHg 54%
    21:00 +2°C° 0 mm 1 mps 618 mmHg 56%
    22:00 +2°C° 0 mm 1 mps 618 mmHg 59%
    23:00 +1°C° 0 mm 1 mps 618 mmHg 60%
    Show more